Tracking 23757 objects as of 26-Oct-2021
HD Live streaming from Space Station
objects crossing your sky now

COSMOS 1375 DEB

Track COSMOS 1375 DEB now!
10-day predictions


NORAD ID: 19453
Int'l Code: 1982-055BL
Perigee: 752.7 km
Apogee: 851.5 km
Inclination: 65.8 °
Period: 100.8 minutes
Semi major axis: 7173 km
RCS: 0.0034 m2 (small)
Launch date: June 6, 1982
Source: Commonwealth of Independent States (former USSR) (CIS)
Launch site: PLESETSK MISSILE AND SPACE COMPLEX (PKMTR)

Note: This is SATELLITE DEBRIS
aabbcc
Your satellite tracking list
Your tracking list is empty




NASA's NSSDC Master Catalog

Two Line Element Set (TLE):
1 19453U 82055BL  21299.33545483  .00000759  00000-0  32767-3 0  9999
2 19453  65.8062 269.4254 0068832 273.1481 237.1776 14.29035935729020
Source of the keplerian elements: AFSPC